Vicksburg, LA

11:16 AM CDT on March 25, 2017 (GMT -0500)
Vicksburg Tallulah Regional

Weather History for KTVR - January, 2014

Change the Weather History Date:

Tuesday, January 14, 2014

  Actual Average Record
Temperature  
Mean Temperature 48 °F 45 °F  
Max Temperature 65 °F 55 °F 79 °F (1972)
Min Temperature 30 °F 35 °F 15 °F (1963)
Degree Days  
Heating Degree Days 17 20  
Month to date heating degree days 306 279  
Since 1 July heating degree days 1431 1216  
Cooling Degree Days 0 0  
Month to date cooling degree days 0 0  
Year to date cooling degree days 0 0  
Moisture  
Dew Point 35 °F    
Average Humidity 64    
Maximum Humidity 100    
Minimum Humidity 28    
Precipitation  
Precipitation 0.00 in 0.15 in 0.94 in (1967)
Month to date precipitation 2.26 2.20  
Year to date precipitation 2.26 2.20  
Sea Level Pressure  
Sea Level Pressure 30.09 in    
Wind  
Wind Speed 5 mph (WSW)    
Max Wind Speed 17 mph    
Max Gust Speed 23 mph    
Visibility 10 miles    
Events      
T = Trace of Precipitation, MM = Missing Value Source: NWS Daily Summary

Daily Weather History Graph

Daily Weather History Graph

Search for Another Location

Airport or City:

Trip Planner

Search our weather history database for the weather conditions in past years. The results will help you decide how hot, cold, wet, or windy it might be!

Date:

Astronomy

Jan. 14, 2014 Rise Set
Actual Time 7:05 AM CST 5:20 PM CST
Civil Twilight 6:39 AM CST 5:47 PM CST
Nautical Twilight 6:09 AM CST 6:17 PM CST
Astronomical Twilight 5:39 AM CST 6:47 PM CST
Moon 4:24 PM CST (1/14) 5:42 AM CST (1/14)
Length of Visible Light 11h 08m
Length of Day
10h 15m
Waxing Gibbous, 98% of the Moon is Illuminated
Jan 14
Waxing Gibbous
Jan 15
Full
Jan 23
Last Quarter
Jan 30
New
Feb 6
First Quarter

Hourly Weather History & Observations

Time (CST) Temp. Windchill Dew Point Humidity Pressure Visibility Wind Dir Wind Speed Gust Speed Precip Events Conditions
12:53 AM 46.9 °F - 36.0 °F 66% 30.05 in 10.0 mi WNW 6.9 mph - N/A   Clear
1:53 AM 41.0 °F 37.1 °F 35.1 °F 79% 30.06 in 10.0 mi WNW 5.8 mph - N/A   Clear
2:53 AM 37.9 °F - 34.0 °F 86% 30.06 in 10.0 mi Calm Calm - N/A   Clear
3:53 AM 35.1 °F - 33.1 °F 92% 30.06 in 10.0 mi Calm Calm - N/A   Clear
4:53 AM 30.9 °F - 30.9 °F 100% 30.08 in 10.0 mi Calm Calm - N/A   Clear
5:53 AM 30.9 °F - 30.0 °F 96% 30.09 in 5.0 mi Calm Calm - N/A   Clear
6:53 AM 33.1 °F - 32.0 °F 96% 30.09 in 10.0 mi Calm Calm - N/A   Clear
7:53 AM 37.9 °F 35.5 °F 35.1 °F 89% 30.10 in 10.0 mi South 3.5 mph - N/A   Clear
8:53 AM 45.0 °F - 39.0 °F 80% 30.11 in 10.0 mi Calm Calm - N/A   Clear
9:53 AM 51.1 °F - 39.9 °F 66% 30.12 in 10.0 mi South 5.8 mph - N/A   Clear
10:53 AM 55.9 °F - 39.0 °F 53% 30.11 in 10.0 mi South 8.1 mph - N/A   Clear
11:53 AM 61.0 °F - 34.0 °F 36% 30.09 in 10.0 mi Variable 5.8 mph - N/A   Clear
12:53 PM 62.1 °F - 34.0 °F 35% 30.07 in 10.0 mi WSW 6.9 mph - N/A   Clear
1:53 PM 63.0 °F - 30.9 °F 30% 30.05 in 10.0 mi Variable 6.9 mph - N/A   Clear
2:53 PM 64.9 °F - 30.9 °F 28% 30.05 in 10.0 mi WSW 9.2 mph - N/A   Clear
3:53 PM 64.0 °F - 33.1 °F 31% 30.05 in 10.0 mi SW 6.9 mph - N/A   Clear
4:53 PM 61.0 °F - 36.0 °F 39% 30.05 in 10.0 mi SSW 4.6 mph - N/A   Clear
5:53 PM 55.0 °F - 35.1 °F 47% 30.07 in 10.0 mi SSW 3.5 mph - N/A   Clear
6:53 PM 43.0 °F 41.3 °F 35.1 °F 74% 30.09 in 10.0 mi SSW 3.5 mph - N/A   Clear
7:53 PM 54.0 °F - 33.1 °F 45% 30.09 in 10.0 mi SSW 5.8 mph - N/A   Clear
8:53 PM 52.0 °F - 34.0 °F 50% 30.12 in 10.0 mi WNW 8.1 mph 19.6 mph N/A   Clear
9:53 PM 53.1 °F - 35.1 °F 50% 30.14 in 10.0 mi North 8.1 mph - N/A   Partly Cloudy
10:53 PM 52.0 °F - 36.0 °F 54% 30.15 in 10.0 mi North 9.2 mph 20.7 mph N/A   Clear
11:53 PM 48.9 °F - 37.9 °F 66% 30.15 in 10.0 mi North 5.8 mph - N/A   Clear